Welcome to the New NWS' Forecast!
Most changes are behind the scenes, but click here for differences you might notice.

Regional Weather Roundup (RWR)

Issued by National Weather Service (NWS)

                            
283 
ASUS46 KSEW 181510
RWRWA 

WASHINGTON REGIONAL WEATHER ROUNDUP
NATIONAL WEATHER SERVICE SEATTLE WA
800 AM PDT TUE SEP 18 2018

NOTE:"FAIR" INDICATES FEW OR NO CLOUDS BELOW 12,000 FEET WITH NO 
SIGNIFICANT WEATHER AND/OR OBSTRUCTIONS TO VISIBILITY.

WAZ507-509-555>559-181600-
SEATTLE, TACOMA, EVERETT, AND VICINITY
  
CITY           SKY/WX    TMP DP  RH WIND       PRES   REMARKS
EVERETT        CLOUDY    49  48  97 NW3       30.14R                  
BOEING FIELD   PTSUNNY   53  46  77 CALM      30.14R                  
RENTON         MOSUNNY   47  43  86 SE3       30.14R                  
SEATAC AIRPORT MOSUNNY   51  45  79 CALM      30.13S                  
JBLM-MCCHORD   NOT AVBL                                               
PUYALLUP       FAIR      43  43 100 CALM      30.13S                  
BREMERTON      SUNNY     41  40  96 CALM      30.14S                  
JBLM-FT LEWIS  NOT AVBL                                               
TACOMA NARROWS MOSUNNY   49  46  90 CALM      30.13S                  
$$
 
WAZ001-503-506-510-514-515-181600-
NORTH INTERIOR
  
CITY           SKY/WX    TMP DP  RH WIND       PRES   REMARKS
BELLINGHAM     CLOUDY    47  44  90 CALM      30.13S                  
FRIDAY HARBOR  CLOUDY    51  47  86 CALM      30.15R                  
EASTSOUND      CLOUDY    52  52 100 CALM      30.13S                  
PORT ANGELES   CLEAR     47  43  86 CALM      30.15R                  
EDIZ HOOK      FAIR      49  45  88 NE3       30.15R                  
PORT TOWNSEND  FAIR      39  39 100 CALM      30.14S                  
NAS WHIDBEY    PTSUNNY   53  49  86 CALM      30.18R                  
ARLINGTON      PTSUNNY   43  41  93 CALM      30.15R FOG              
BURLINGTON     PTSUNNY   45  45 100 CALM      30.14S FOG              
$$
 
WAZ020-022-039-040-504-511-512-181600-
SOUTHWEST INTERIOR
  
CITY           SKY/WX    TMP DP  RH WIND       PRES   REMARKS
SHELTON        SUNNY     38  36  92 CALM      30.12S                  
OLYMPIA        MOSUNNY   39  39 100 CALM      30.14S                  
CHEHALIS       FOG       41  41 100 CALM      30.14R VSB<1/4          
KELSO          SUNNY     44  43  96 CALM      30.13S                  
VANCOUVER      SUNNY     49  47  93 CALM      30.11R                  
SCAPPOOSE, OR  SUNNY     48  44  86 CALM      30.10R                  
PORTLAND, OR   PTSUNNY   51  46  83 CALM      30.12R                  
$$
 
WAZ021-516-517-181600-
WASHINGTON COAST
  
CITY           SKY/WX    TMP DP  RH WIND       PRES   REMARKS
FORKS          CLEAR     39  37  92 CALM      30.13S                  
HOQUIAM        PTCLDY    43  42  97 NE7       30.15R FOG              
ASTORIA, OR    CLEAR     42  42 100 VRB3      30.12S                  
$$
 
WAZ019-023-024-040-567>569-181600-
CASCADE MOUNTAINS AND COLUMBIA GORGE
  
CITY           SKY/WX    TMP DP  RH WIND       PRES   REMARKS
STAMPEDE PASS  FOG       41  41 100 VRB3      30.09S VSB 1/4          
TROUTDALE, OR  CLOUDY    51  47  86 CALM      30.11R                  
HOOD RIVER, OR SUNNY     43  41  93 CALM      30.10R                  
THE DALLES, OR SUNNY     50  45  83 CALM      30.07R                  
$$

WAZ026-027-041>044-520-521-181600-
EAST SLOPES
  
CITY           SKY/WX    TMP DP  RH WIND       PRES   REMARKS
OMAK           SUNNY     48  37  65 N10       30.09R                  
WENATCHEE      SUNNY     47  40  76 W5        30.08R                  
ELLENSBURG     SUNNY     45  39  79 CALM      30.08R                  
YAKIMA         SUNNY     43  36  76 W6        30.08R                  
SUNNYSIDE ARPT SUNNY     40  39  96 CALM      30.07R                  
YAKIMA TC      NOT AVBL                                               
$$

WAZ028-034-035-181600-
COLUMBIA BASIN
  
CITY           SKY/WX    TMP DP  RH WIND       PRES   REMARKS
EPHRATA        SUNNY     50  34  54 N3        30.06R                  
MOSES LAKE     SUNNY     45  31  58 N6        30.07R                  
PASCO          MOSUNNY   42  39  89 CALM      30.07R                  
RICHLAND ARPT  SUNNY     47  40  75 CALM      30.07R                  
HERMISTON, OR  PTSUNNY   48  37  65 S5        30.06R                  
$$

WAZ036>038-181600-
NORTHEAST WASHINGTON
  
CITY           SKY/WX    TMP DP  RH WIND       PRES   REMARKS
SPOKANE GEIGER MOSUNNY   45  35  68 CALM      30.05R                  
SPOKANE FELTS  SUNNY     44  37  76 CALM      30.07R                  
FAIRCHILD AFB  NOT AVBL                                               
COEURDALENE,ID SUNNY     46  40  79 NE7       30.06R                  
DEER PARK      SUNNY     44  40  85 CALM      30.06R                  
$$

WAZ029>033-181600-
SOUTHEAST WASHINGTON
  
CITY           SKY/WX    TMP DP  RH WIND       PRES   REMARKS
PULLMAN        PTSUNNY   42  32  67 CALM      30.06R                  
LEWISTON, ID   CLOUDY    51  39  63 CALM      30.04R                  
WALLA WALLA    PTSUNNY   53  38  56 E5        30.05R                  
PENDLETON, OR  PTSUNNY   46  35  65 SE6       30.05R                  
$$
  


000
ASUS46 KSEW 181510
RWRWA 

WASHINGTON REGIONAL WEATHER ROUNDUP
NATIONAL WEATHER SERVICE SEATTLE WA
800 AM PDT TUE SEP 18 2018

NOTE:"FAIR" INDICATES FEW OR NO CLOUDS BELOW 12,000 FEET WITH NO 
SIGNIFICANT WEATHER AND/OR OBSTRUCTIONS TO VISIBILITY.

WAZ507-509-555>559-181600-
SEATTLE, TACOMA, EVERETT, AND VICINITY
  
CITY           SKY/WX    TMP DP  RH WIND       PRES   REMARKS
EVERETT        CLOUDY    49  48  97 NW3       30.14R                  
BOEING FIELD   PTSUNNY   53  46  77 CALM      30.14R                  
RENTON         MOSUNNY   47  43  86 SE3       30.14R                  
SEATAC AIRPORT MOSUNNY   51  45  79 CALM      30.13S                  
JBLM-MCCHORD   NOT AVBL                                               
PUYALLUP       FAIR      43  43 100 CALM      30.13S                  
BREMERTON      SUNNY     41  40  96 CALM      30.14S                  
JBLM-FT LEWIS  NOT AVBL                                               
TACOMA NARROWS MOSUNNY   49  46  90 CALM      30.13S                  
$$
 
WAZ001-503-506-510-514-515-181600-
NORTH INTERIOR
  
CITY           SKY/WX    TMP DP  RH WIND       PRES   REMARKS
BELLINGHAM     CLOUDY    47  44  90 CALM      30.13S                  
FRIDAY HARBOR  CLOUDY    51  47  86 CALM      30.15R                  
EASTSOUND      CLOUDY    52  52 100 CALM      30.13S                  
PORT ANGELES   CLEAR     47  43  86 CALM      30.15R                  
EDIZ HOOK      FAIR      49  45  88 NE3       30.15R                  
PORT TOWNSEND  FAIR      39  39 100 CALM      30.14S                  
NAS WHIDBEY    PTSUNNY   53  49  86 CALM      30.18R                  
ARLINGTON      PTSUNNY   43  41  93 CALM      30.15R FOG              
BURLINGTON     PTSUNNY   45  45 100 CALM      30.14S FOG              
$$
 
WAZ020-022-039-040-504-511-512-181600-
SOUTHWEST INTERIOR
  
CITY           SKY/WX    TMP DP  RH WIND       PRES   REMARKS
SHELTON        SUNNY     38  36  92 CALM      30.12S                  
OLYMPIA        MOSUNNY   39  39 100 CALM      30.14S                  
CHEHALIS       FOG       41  41 100 CALM      30.14R VSB<1/4          
KELSO          SUNNY     44  43  96 CALM      30.13S                  
VANCOUVER      SUNNY     49  47  93 CALM      30.11R                  
SCAPPOOSE, OR  SUNNY     48  44  86 CALM      30.10R                  
PORTLAND, OR   PTSUNNY   51  46  83 CALM      30.12R                  
$$
 
WAZ021-516-517-181600-
WASHINGTON COAST
  
CITY           SKY/WX    TMP DP  RH WIND       PRES   REMARKS
FORKS          CLEAR     39  37  92 CALM      30.13S                  
HOQUIAM        PTCLDY    43  42  97 NE7       30.15R FOG              
ASTORIA, OR    CLEAR     42  42 100 VRB3      30.12S                  
$$
 
WAZ019-023-024-040-567>569-181600-
CASCADE MOUNTAINS AND COLUMBIA GORGE
  
CITY           SKY/WX    TMP DP  RH WIND       PRES   REMARKS
STAMPEDE PASS  FOG       41  41 100 VRB3      30.09S VSB 1/4          
TROUTDALE, OR  CLOUDY    51  47  86 CALM      30.11R                  
HOOD RIVER, OR SUNNY     43  41  93 CALM      30.10R                  
THE DALLES, OR SUNNY     50  45  83 CALM      30.07R                  
$$

WAZ026-027-041>044-520-521-181600-
EAST SLOPES
  
CITY           SKY/WX    TMP DP  RH WIND       PRES   REMARKS
OMAK           SUNNY     48  37  65 N10       30.09R                  
WENATCHEE      SUNNY     47  40  76 W5        30.08R                  
ELLENSBURG     SUNNY     45  39  79 CALM      30.08R                  
YAKIMA         SUNNY     43  36  76 W6        30.08R                  
SUNNYSIDE ARPT SUNNY     40  39  96 CALM      30.07R                  
YAKIMA TC      NOT AVBL                                               
$$

WAZ028-034-035-181600-
COLUMBIA BASIN
  
CITY           SKY/WX    TMP DP  RH WIND       PRES   REMARKS
EPHRATA        SUNNY     50  34  54 N3        30.06R                  
MOSES LAKE     SUNNY     45  31  58 N6        30.07R                  
PASCO          MOSUNNY   42  39  89 CALM      30.07R                  
RICHLAND ARPT  SUNNY     47  40  75 CALM      30.07R                  
HERMISTON, OR  PTSUNNY   48  37  65 S5        30.06R                  
$$

WAZ036>038-181600-
NORTHEAST WASHINGTON
  
CITY           SKY/WX    TMP DP  RH WIND       PRES   REMARKS
SPOKANE GEIGER MOSUNNY   45  35  68 CALM      30.05R                  
SPOKANE FELTS  SUNNY     44  37  76 CALM      30.07R                  
FAIRCHILD AFB  NOT AVBL                                               
COEURDALENE,ID SUNNY     46  40  79 NE7       30.06R                  
DEER PARK      SUNNY     44  40  85 CALM      30.06R                  
$$

WAZ029>033-181600-
SOUTHEAST WASHINGTON
  
CITY           SKY/WX    TMP DP  RH WIND       PRES   REMARKS
PULLMAN        PTSUNNY   42  32  67 CALM      30.06R                  
LEWISTON, ID   CLOUDY    51  39  63 CALM      30.04R                  
WALLA WALLA    PTSUNNY   53  38  56 E5        30.05R                  
PENDLETON, OR  PTSUNNY   46  35  65 SE6       30.05R                  
$$